This is the latest recevied weather packets stored in our database for station/object KC4KQE. If no packets are shown the sender has not sent any weather packets the latest 10 day(s).
| Time | Temp. | Humidity | Pressure | Rain* | Wind** | Luminosity | Snow |
|---|---|---|---|---|---|---|---|
| 1777864156 | 28.33° C | 17% | 1009.7 hPa | 0 mm | - | 0 W/m² | - |
| 1777863856 | 28.89° C | 17% | 1009.6 hPa | 0 mm | - | 0 W/m² | - |
| 1777863556 | 28.89° C | 17% | 1009.4 hPa | 0 mm | - | 0 W/m² | - |
| 1777863256 | 28.89° C | 17% | 1009.2 hPa | 0 mm | - | 0 W/m² | - |
| 1777862955 | 28.89° C | 16% | 1009 hPa | 0 mm | - | 0 W/m² | - |
| 1777862656 | 29.44° C | 16% | 1009 hPa | 0 mm | - | 0 W/m² | - |
| 1777862356 | 29.44° C | 16% | 1008.9 hPa | 0 mm | - | 0 W/m² | - |
| 1777862061 | 29.44° C | 16% | 1008.7 hPa | 0 mm | - | 0 W/m² | - |
| 1777861756 | 29.44° C | 15% | 1008.7 hPa | 0 mm | - | 0 W/m² | - |
| 1777861456 | 30° C | 15% | 1008.6 hPa | 0 mm | - | 0 W/m² | - |
| 1777861157 | 30° C | 14% | 1008.6 hPa | 0 mm | - | 0 W/m² | - |
| 1777860857 | 30.56° C | 14% | 1008.5 hPa | 0 mm | - | 0 W/m² | - |
| 1777860555 | 30.56° C | 14% | 1008.2 hPa | 0 mm | - | 5 W/m² | - |
| 1777860256 | 30.56° C | 14% | 1008.2 hPa | 0 mm | - | 11 W/m² | - |
| 1777859955 | 31.11° C | 13% | 1008 hPa | 0 mm | - | 23 W/m² | - |
| 1777859656 | 31.11° C | 13% | 1008 hPa | 0 mm | - | 32 W/m² | - |
| 1777859356 | 31.67° C | 12% | 1007.9 hPa | 0 mm | - | 33 W/m² | - |
| 1777859056 | 31.67° C | 12% | 1007.7 hPa | 0 mm | - | 42 W/m² | - |
| 1777858756 | 31.67° C | 12% | 1007.8 hPa | 0 mm | - | 53 W/m² | - |
| 1777858455 | 31.67° C | 12% | 1007.8 hPa | 0 mm | - | 49 W/m² | - |
| 1777858155 | 32.22° C | 12% | 1007.8 hPa | 0 mm | - | 58 W/m² | - |
| 1777857856 | 32.22° C | 12% | 1007.8 hPa | 0 mm | - | 79 W/m² | - |
| 1777857555 | 32.78° C | 12% | 1007.8 hPa | 0 mm | - | 107 W/m² | - |
| 1777857256 | 32.78° C | 12% | 1007.7 hPa | 0 mm | - | 156 W/m² | - |
| 1777856955 | 33.33° C | 12% | 1007.8 hPa | 0 mm | - | 174 W/m² | - |
* Rain latest hour (hover to see other rain measurements)
** Current wind speed in m/s (hover to see current wind gust speed)